Stündliche Wetter Bolshie Kokuzy

Heute, 29 Juli, Donnerstag

Zeit Temperatur Niederschläge Wind Luftdruck Luftfeuchtigkeit
00:00 +16°C° 0 mm 2 m/S 754 mmHg 56%
01:00 +15°C° 0 mm 2 m/S 754 mmHg 58%
02:00 +15°C° 0 mm 2 m/S 754 mmHg 60%
03:00 +15°C° 0 mm 2 m/S 753 mmHg 63%
04:00 +16°C° 0 mm 2 m/S 753 mmHg 62%
05:00 +17°C° 0 mm 2 m/S 753 mmHg 61%
06:00 +18°C° 0 mm 2 m/S 753 mmHg 61%
07:00 +20°C° 0 mm 3 m/S 753 mmHg 58%
08:00 +21°C° 0 mm 4 m/S 752 mmHg 55%
09:00 +23°C° 0 mm 4 m/S 752 mmHg 52%
10:00 +23°C° 0 mm 4 m/S 752 mmHg 53%
11:00 +23°C° 0 mm 4 m/S 752 mmHg 54%
12:00 +23°C° 0 mm 4 m/S 752 mmHg 54%
13:00 +21°C° 0.7 mm 4 m/S 752 mmHg 67%
14:00 +20°C° 0.7 mm 4 m/S 751 mmHg 80%
15:00 +18°C° 0 mm 3 m/S 751 mmHg 91%
16:00 +18°C° 0.1 mm 4 m/S 750 mmHg 89%
17:00 +19°C° 0.1 mm 4 m/S 749 mmHg 87%
18:00 +19°C° 0.1 mm 5 m/S 749 mmHg 85%
19:00 +19°C° 0.3 mm 4 m/S 748 mmHg 88%
20:00 +18°C° 0.3 mm 4 m/S 748 mmHg 90%
21:00 +18°C° 0.3 mm 3 m/S 747 mmHg 93%
22:00 +18°C° 0.1 mm 3 m/S 747 mmHg 94%
23:00 +18°C° 0.1 mm 3 m/S 747 mmHg 95%

Morgen, 30 Juli, Freitag

Zeit Temperatur Niederschläge Wind Luftdruck Luftfeuchtigkeit
00:00 +18°C° 0.1 mm 2 m/S 747 mmHg 96%
01:00 +18°C° 0 mm 2 m/S 747 mmHg 96%
02:00 +17°C° 0 mm 2 m/S 747 mmHg 97%
03:00 +17°C° 0 mm 2 m/S 747 mmHg 97%
04:00 +18°C° 0 mm 3 m/S 747 mmHg 96%
05:00 +18°C° 0 mm 3 m/S 747 mmHg 95%
06:00 +19°C° 0 mm 4 m/S 748 mmHg 93%
07:00 +20°C° 0 mm 4 m/S 748 mmHg 87%
08:00 +22°C° 0 mm 4 m/S 748 mmHg 80%
09:00 +23°C° 0 mm 4 m/S 748 mmHg 74%
10:00 +26°C° 0 mm 5 m/S 748 mmHg 67%
11:00 +27°C° 0 mm 5 m/S 748 mmHg 60%
12:00 +28°C° 0 mm 5 m/S 748 mmHg 53%
13:00 +28°C° 0 mm 4 m/S 748 mmHg 54%
14:00 +28°C° 0 mm 4 m/S 748 mmHg 55%
15:00 +27°C° 0 mm 4 m/S 748 mmHg 56%
16:00 +27°C° 0 mm 3 m/S 748 mmHg 57%
17:00 +27°C° 0 mm 3 m/S 748 mmHg 58%
18:00 +27°C° 0 mm 3 m/S 748 mmHg 59%
19:00 +26°C° 0 mm 3 m/S 748 mmHg 62%
20:00 +25°C° 0 mm 2 m/S 748 mmHg 64%
21:00 +24°C° 0 mm 2 m/S 748 mmHg 66%
22:00 +23°C° 0 mm 2 m/S 748 mmHg 68%
23:00 +23°C° 0 mm 2 m/S 748 mmHg 70%

übermorgen, 31 Juli, Samstag

Zeit Temperatur Niederschläge Wind Luftdruck Luftfeuchtigkeit
00:00 +21°C° 0 mm 2 m/S 748 mmHg 72%
01:00 +21°C° 0.1 mm 2 m/S 747 mmHg 75%
02:00 +21°C° 0.1 mm 2 m/S 747 mmHg 79%
03:00 +21°C° 0.1 mm 1 m/S 747 mmHg 83%
04:00 +20°C° 0.3 mm 2 m/S 747 mmHg 85%
05:00 +21°C° 0.3 mm 2 m/S 747 mmHg 87%
06:00 +21°C° 0.3 mm 3 m/S 747 mmHg 89%
07:00 +22°C° 0 mm 3 m/S 747 mmHg 84%
08:00 +25°C° 0 mm 4 m/S 747 mmHg 78%
09:00 +26°C° 0 mm 5 m/S 747 mmHg 73%
10:00 +27°C° 0.2 mm 5 m/S 747 mmHg 69%
11:00 +28°C° 0.2 mm 6 m/S 747 mmHg 64%
12:00 +28°C° 0.2 mm 7 m/S 747 mmHg 60%
13:00 +28°C° 0.4 mm 6 m/S 747 mmHg 60%
14:00 +28°C° 0.4 mm 6 m/S 747 mmHg 60%
15:00 +28°C° 0.4 mm 6 m/S 747 mmHg 60%
16:00 +28°C° 0 mm 6 m/S 747 mmHg 58%
17:00 +27°C° 0 mm 6 m/S 748 mmHg 55%
18:00 +27°C° 0 mm 6 m/S 748 mmHg 52%
19:00 +25°C° 0 mm 5 m/S 748 mmHg 55%
20:00 +23°C° 0 mm 4 m/S 748 mmHg 59%
21:00 +21°C° 0 mm 3 m/S 749 mmHg 62%
22:00 +20°C° 0 mm 3 m/S 749 mmHg 65%
23:00 +19°C° 0 mm 3 m/S 749 mmHg 67%

1 August, Sonntag

Zeit Temperatur Niederschläge Wind Luftdruck Luftfeuchtigkeit
00:00 +19°C° 0 mm 3 m/S 750 mmHg 70%
01:00 +18°C° 0 mm 3 m/S 750 mmHg 70%
02:00 +18°C° 0 mm 3 m/S 750 mmHg 70%
03:00 +17°C° 0 mm 3 m/S 750 mmHg 70%
04:00 +18°C° 0 mm 3 m/S 750 mmHg 68%
05:00 +19°C° 0 mm 3 m/S 751 mmHg 67%
06:00 +20°C° 0 mm 3 m/S 751 mmHg 65%
07:00 +21°C° 0 mm 4 m/S 751 mmHg 60%
08:00 +23°C° 0 mm 4 m/S 752 mmHg 55%
09:00 +26°C° 0 mm 5 m/S 752 mmHg 51%
10:00 +27°C° 0 mm 5 m/S 752 mmHg 48%
11:00 +28°C° 0 mm 6 m/S 752 mmHg 46%
12:00 +29°C° 0 mm 6 m/S 752 mmHg 43%
13:00 +29°C° 0 mm 6 m/S 752 mmHg 42%
14:00 +29°C° 0 mm 6 m/S 752 mmHg 41%
15:00 +29°C° 0 mm 6 m/S 752 mmHg 40%
16:00 +29°C° 0 mm 5 m/S 752 mmHg 44%
17:00 +28°C° 0 mm 4 m/S 752 mmHg 48%
18:00 +28°C° 0 mm 3 m/S 752 mmHg 52%
19:00 +27°C° 0 mm 3 m/S 753 mmHg 54%
20:00 +26°C° 0 mm 3 m/S 753 mmHg 56%
21:00 +25°C° 0 mm 2 m/S 753 mmHg 58%
22:00 +24°C° 0 mm 2 m/S 753 mmHg 60%
23:00 +23°C° 0 mm 2 m/S 753 mmHg 61%

2 August, Montag

Zeit Temperatur Niederschläge Wind Luftdruck Luftfeuchtigkeit
00:00 +23°C° 0 mm 2 m/S 753 mmHg 63%
01:00 +21°C° 0 mm 2 m/S 753 mmHg 65%
02:00 +21°C° 0 mm 2 m/S 753 mmHg 66%
03:00 +20°C° 0 mm 3 m/S 753 mmHg 67%
04:00 +21°C° 0 mm 3 m/S 753 mmHg 66%
05:00 +22°C° 0 mm 3 m/S 753 mmHg 66%
06:00 +24°C° 0 mm 3 m/S 753 mmHg 65%
07:00 +25°C° 0 mm 4 m/S 753 mmHg 60%
08:00 +26°C° 0 mm 4 m/S 753 mmHg 56%
09:00 +27°C° 0 mm 5 m/S 753 mmHg 51%
10:00 +28°C° 0 mm 5 m/S 753 mmHg 48%
11:00 +30°C° 0 mm 5 m/S 753 mmHg 45%
12:00 +32°C° 0 mm 5 m/S 753 mmHg 42%
13:00 +32°C° 0 mm 5 m/S 752 mmHg 42%
14:00 +32°C° 0 mm 4 m/S 752 mmHg 42%
15:00 +32°C° 0 mm 4 m/S 752 mmHg 43%
16:00 +32°C° 0 mm 4 m/S 752 mmHg 45%
17:00 +31°C° 0 mm 3 m/S 751 mmHg 47%
18:00 +31°C° 0 mm 3 m/S 751 mmHg 49%
19:00 +29°C° 0 mm 3 m/S 751 mmHg 53%
20:00 +28°C° 0 mm 3 m/S 751 mmHg 56%
21:00 +26°C° 0 mm 3 m/S 751 mmHg 59%
22:00 +25°C° 0 mm 3 m/S 751 mmHg 61%
23:00 +25°C° 0 mm 3 m/S 751 mmHg 63%

3 August, Dienstag

Zeit Temperatur Niederschläge Wind Luftdruck Luftfeuchtigkeit
00:00 +24°C° 0 mm 3 m/S 751 mmHg 65%
01:00 +24°C° 0 mm 3 m/S 751 mmHg 64%
02:00 +24°C° 0 mm 3 m/S 751 mmHg 63%
03:00 +24°C° 0 mm 2 m/S 750 mmHg 63%
04:00 +24°C° 0 mm 3 m/S 750 mmHg 63%
05:00 +24°C° 0 mm 3 m/S 750 mmHg 64%
06:00 +25°C° 0 mm 3 m/S 750 mmHg 64%
07:00 +26°C° 0 mm 3 m/S 750 mmHg 57%
08:00 +28°C° 0 mm 4 m/S 750 mmHg 51%
09:00 +30°C° 0 mm 4 m/S 750 mmHg 44%
10:00 +32°C° 0 mm 4 m/S 750 mmHg 40%
11:00 +34°C° 0 mm 4 m/S 750 mmHg 36%
12:00 +35°C° 0 mm 5 m/S 750 mmHg 31%
13:00 +36°C° 0 mm 5 m/S 749 mmHg 31%
14:00 +36°C° 0 mm 5 m/S 749 mmHg 30%
15:00 +37°C° 0 mm 5 m/S 749 mmHg 29%
16:00 +35°C° 0 mm 5 m/S 749 mmHg 37%
17:00 +33°C° 0 mm 6 m/S 749 mmHg 45%
18:00 +30°C° 0 mm 7 m/S 750 mmHg 53%
19:00 +28°C° 0 mm 5 m/S 750 mmHg 62%
20:00 +26°C° 0 mm 4 m/S 751 mmHg 71%
21:00 +24°C° 0 mm 2 m/S 751 mmHg 80%
22:00 +23°C° 0 mm 2 m/S 751 mmHg 83%
23:00 +23°C° 0 mm 2 m/S 752 mmHg 85%
Mehr zeigen

Wir brauchen deine Erlaubnis

Meteoprog und unser Service Anbieter werden persönliche Daten aufbewahren, so wie Cookies, Geräte Bezeichnung oder ähnliche Technologien von deinem Gerät und Prozess, so wie Persönliche Daten Inhalte und Werbungen, genauso wie social Media und den Verkehr zu analysieren.

  • Aufbewahrung und/oder Zugang zu deiner Geräte Informationen.

    Cookies, Geräte Bezeichnung oder andere Informationen, können aufbewahrt oder Zugang zu deinem Gerät erhalten, für den Grund, der oben angegeben wird.

  • Personalisierte Werbung und Inhalte, Messungen, Einblick in das Publikum und Produkt Entwicklung.

    Werbungen und Inhalte können personalisiert werden, basierend auf ein Profil. Mehr Daten können besser personalisierte Werbungen und Inhalte hinzufügen. Werbung und Inhalte können gezeigt und gemessen werden. Einblicke über das Publikum, welche die Werbung gesehen haben und den Inhalt, können abgeleitet werden. So wie Daten können genutzt werden, um es zu verbessern oder die Benutzer Erfahrung zu verbessern das System und die Software.

Wenn du “Ich stimme zu” klickst, erlaubst du uns, die Cookies zu benutzen die Geräte Bezeichnung, den Web oder ähnliche Technologien zu benutzen. Deine Settings, können in deinem Gerät bei deinem Browser geändert werden.

Für den bestimmten Zweck, berechtigten Interessen beruhen darauf, mehr als auf den Inhalt. Du kannst mehr darüber in unseren Privaten und Cookie Politik lesen.